Flag for Poland Weather past 2 weeks in Słupsk, Poland

Now
54 °F

Passing clouds.


Feels Like: 54 °F
Forecast: 54 / 70 °F
Wind: 3 mph from East

Location: Leba

Current Time: Sep 16, 2014 at 3:10:11 AM

Latest Report: Sep 16, 2014 at 2:00 AM


Visibility: 13 mi

Pressure: 30.26 "Hg

Humidity: 87%

Dew point: 51 °F

Location of SłupskLocation

Historic Weather in Słupsk — Graph

°F

Słupsk temperature yesterday

Maximum temperature yesterday: 67 °F (at 11:00 AM)
Minimum temperature yesterday: 57 °F (at 11:00 PM)
Average temperature yesterday: 61 °F

Past Weeks' High & Low Weather Summary

 TemperatureHumidityPressure
High74 °F (Sep 5, 5:00 PM)98% (Sep 11, 7:00 AM)30.40 "Hg (Sep 11, 7:00 AM)
Low46 °F (Sep 11, 5:00 AM)38% (Sep 5, 4:00 PM)29.85 "Hg (Sep 10, 5:00 AM)
Average60 °F81%30.13 "Hg
* Reported Sep 1 1:00 AM — Sep 16 1:00 AM, Słupsk, Weather by CustomWeather, © 2014

Note: Actual official high and low records may vary slightly from our data, if they occured in-between our weather recording intervals... More about our weather records

Advertising

Słupsk weather history for previous 24 hours

 ConditionsComfort  
Time TempWeatherWind HumidityBarometerVisibility
1:00 AM
Sep 16
55 °FClear.3 mph87%30.27 "Hg10 mi
12:00 AM56 °FClear.3 mph86%30.27 "Hg12 mi
11:00 PM
Sep 15
57 °FClear.6 mph83%30.28 "Hg12 mi
10:00 PM57 °FClear.6 mph82%30.27 "Hg12 mi
9:00 PM58 °FPassing clouds.6 mph81%30.27 "Hg12 mi
8:00 PM59 °FPassing clouds.7 mph78%30.27 "Hg12 mi
7:00 PM60 °FPartly sunny.7 mph80%30.26 "Hg12 mi
6:00 PM61 °FPartly sunny.6 mph79%30.26 "Hg12 mi
5:00 PM64 °FScattered clouds.5 mph74%30.25 "Hg12 mi
4:00 PM64 °FScattered clouds.6 mph72%30.26 "Hg12 mi
3:00 PM65 °FScattered clouds.6 mph71%30.27 "Hg12 mi
2:00 PM65 °FScattered clouds.7 mph73%30.27 "Hg12 mi
1:00 PM66 °FScattered clouds.7 mph73%30.28 "Hg12 mi
12:00 PM66 °FScattered clouds.6 mph72%30.28 "Hg12 mi
11:00 AM67 °FScattered clouds.7 mph78%30.28 "Hg12 mi
10:00 AMN/APassing clouds.24 mphN/AN/A10 mi
9:00 AM62 °FScattered clouds.5 mph90%30.27 "Hg12 mi
8:00 AMN/APassing clouds.20 mphN/AN/A2 mi
7:00 AM58 °FPassing clouds.5 mph95%30.25 "Hg9 mi
6:00 AM58 °FPassing clouds.5 mph95%30.25 "Hg8 mi
5:00 AM59 °FClear.6 mph94%30.24 "Hg9 mi
4:00 AM59 °FClear.5 mph93%30.24 "Hg9 mi
3:00 AM60 °FClear.6 mph92%30.25 "Hg9 mi
Weather by CustomWeather, © 2014

See weather overviewHow to use our weather pages